| time (UTC) | temp F | wind direction | speed MPH | gust MPH | rain 1hr in | rain 24hr in | rain mn in | humidity % | barometer mb |
| 20260507115712 | 50 | 298 | 1.0 | 1.0 | 0.00 | 0.00 | 0.01 | 99 | 986.4 |
| 20260507115146 | 50 | 303 | 1.0 | 2.0 | 0.00 | 0.00 | 0.01 | 99 | 986.7 |
| 20260507114527 | 50 | 206 | 1.0 | 1.0 | 0.00 | 0.00 | 0.01 | 99 | 986.7 |
| 20260507113916 | 50 | 253 | 0.0 | 1.0 | 0.00 | 0.00 | 0.01 | 99 | 986.7 |
| 20260507113326 | 50 | 268 | 0.0 | 0.0 | 0.00 | 0.00 | 0.01 | 99 | 986.7 |
| 20260507112752 | 50 | 274 | 1.0 | 1.0 | 0.00 | 0.00 | 0.01 | 99 | 986.7 |
| 20260507111513 | 50 | 234 | 2.0 | 2.0 | 0.00 | 0.00 | 0.01 | 99 | 986.4 |
| 20260507110940 | 50 | 263 | 0.0 | 1.0 | 0.00 | 0.00 | 0.01 | 99 | 986.4 |
| 20260507110320 | 50 | 237 | 1.0 | 2.0 | 0.00 | 0.00 | 0.01 | 99 | 986.4 |
| 20260507105718 | 50 | 234 | 1.0 | 1.0 | 0.00 | 0.00 | 0.01 | 99 | 986.1 |
| 20260507105143 | 50 | 276 | 0.0 | 1.0 | 0.00 | 0.00 | 0.01 | 99 | 986.1 |
| 20260507104546 | 50 | 241 | 0.0 | 1.0 | 0.00 | 0.00 | 0.01 | 99 | 986.1 |
| 20260507103320 | 50 | 233 | 0.0 | 0.0 | 0.00 | 0.00 | 0.01 | 99 | 986.1 |
| 20260507102729 | 50 | 234 | 0.0 | 0.0 | 0.00 | 0.00 | 0.01 | 99 | 985.7 |
| 20260507101525 | 50 | 265 | 0.0 | 0.0 | 0.00 | 0.00 | 0.01 | 99 | 985.7 |
| 20260507100912 | 50 | 272 | 0.0 | 0.0 | 0.00 | 0.00 | 0.01 | 99 | 985.7 |
| 20260507100332 | 50 | 272 | 0.0 | 1.0 | 0.00 | 0.00 | 0.01 | 99 | 985.4 |
| 20260507095740 | 50 | 271 | 0.0 | 1.0 | 0.00 | 0.00 | 0.01 | 99 | 985.7 |
| 20260507095110 | 50 | 280 | 0.0 | 1.0 | 0.00 | 0.00 | 0.01 | 99 | 985.4 |
| 20260507093930 | 50 | 229 | 0.0 | 0.0 | 0.00 | 0.00 | 0.01 | 99 | 985.7 |
| 20260507093344 | 50 | 293 | 0.0 | 0.0 | 0.00 | 0.00 | 0.01 | 99 | 985.7 |
| 20260507092744 | 50 | 259 | 0.0 | 2.0 | 0.00 | 0.00 | 0.01 | 99 | 985.7 |
| 20260507092130 | 50 | 222 | 1.0 | 2.0 | 0.00 | 0.00 | 0.01 | 99 | 986.1 |
| 20260507091510 | 51 | 232 | 1.0 | 2.0 | 0.00 | 0.00 | 0.01 | 99 | 986.1 |
| 20260507090940 | 51 | 252 | 1.0 | 1.0 | 0.00 | 0.00 | 0.01 | 99 | 985.7 |
| 20260507090318 | 51 | 258 | 0.0 | 1.0 | 0.00 | 0.00 | 0.01 | 99 | 986.1 |
| 20260507085715 | 51 | 247 | 0.0 | 1.0 | 0.00 | 0.00 | 0.01 | 99 | 985.7 |
| 20260507085109 | 51 | 299 | 0.0 | 1.0 | 0.00 | 0.00 | 0.01 | 99 | 985.7 |
| 20260507084541 | 51 | 273 | 1.0 | 2.0 | 0.00 | 0.00 | 0.01 | 99 | 985.7 |
| 20260507083925 | 51 | 252 | 0.0 | 1.0 | 0.00 | 0.00 | 0.01 | 99 | 985.7 |
| 20260507083327 | 51 | 272 | 0.0 | 1.0 | 0.00 | 0.00 | 0.01 | 99 | 985.4 |
| 20260507082121 | 51 | 265 | 0.0 | 0.0 | 0.00 | 0.00 | 0.01 | 99 | 985.7 |
| 20260507081530 | 51 | 266 | 0.0 | 0.0 | 0.00 | 0.00 | 0.01 | 99 | 985.7 |
| 20260507080917 | 51 | 266 | 0.0 | 0.0 | 0.00 | 0.00 | 0.01 | 99 | 985.7 |
| 20260507080337 | 51 | 273 | 0.0 | 1.0 | 0.00 | 0.00 | 0.01 | 99 | 985.7 |
| 20260507075716 | 51 | 277 | 0.0 | 0.0 | 0.00 | 0.00 | 0.01 | 99 | 985.7 |
| 20260507075136 | 51 | 299 | 0.0 | 1.0 | 0.00 | 0.00 | 0.01 | 99 | 985.7 |
| 20260507074541 | 51 | 242 | 0.0 | 1.0 | 0.00 | 0.00 | 0.01 | 99 | 985.7 |
| 20260507073952 | 51 | 259 | 0.0 | 0.0 | 0.00 | 0.00 | 0.01 | 99 | 985.7 |
| 20260507073328 | 52 | 269 | 0.0 | 1.0 | 0.00 | 0.00 | 0.01 | 99 | 985.7 |
| 20260507072748 | 52 | 227 | 1.0 | 1.0 | 0.00 | 0.00 | 0.01 | 99 | 985.7 |
| 20260507072116 | 52 | 224 | 1.0 | 1.0 | 0.00 | 0.00 | 0.01 | 99 | 985.4 |
| 20260507071537 | 52 | 281 | 0.0 | 1.0 | 0.00 | 0.00 | 0.01 | 99 | 985.4 |
| 20260507070310 | 52 | 253 | 0.0 | 1.0 | 0.00 | 0.00 | 0.01 | 99 | 985.4 |
| 20260507065753 | 52 | 264 | 0.0 | 1.0 | 0.00 | 0.00 | 0.01 | 99 | 985.4 |
| 20260507064514 | 52 | 264 | 0.0 | 0.0 | 0.00 | 0.00 | 0.01 | 99 | 985.4 |
| 20260507063913 | 52 | 212 | 0.0 | 1.0 | 0.00 | 0.00 | 0.01 | 99 | 985.4 |
| 20260507063347 | 52 | 212 | 0.0 | 1.0 | 0.00 | 0.00 | 0.01 | 99 | 985.7 |
| 20260507062716 | 52 | 262 | 0.0 | 0.0 | 0.00 | 0.00 | 0.01 | 99 | 986.1 |
| 20260507062130 | 52 | 270 | 0.0 | 0.0 | 0.00 | 0.00 | 0.01 | 99 | 986.1 |
| 20260507061517 | 52 | 243 | 1.0 | 1.0 | 0.00 | 0.00 | 0.01 | 99 | 985.7 |
| 20260507060928 | 52 | 238 | 0.0 | 1.0 | 0.00 | 0.00 | 0.01 | 99 | 986.1 |
| 20260507060317 | 52 | 310 | 0.0 | 0.0 | 0.00 | 0.00 | 0.01 | 99 | 985.7 |
| 20260507055734 | 52 | 310 | 0.0 | 0.0 | 0.00 | 0.00 | 0.01 | 99 | 985.4 |
| 20260507055110 | 52 | 268 | 0.0 | 0.0 | 0.00 | 0.00 | 0.01 | 99 | 985.7 |
| 20260507053926 | 53 | 241 | 0.0 | 1.0 | 0.00 | 0.00 | 0.01 | 99 | 985.7 |
| 20260507052712 | 54 | 243 | 0.0 | 1.0 | 0.00 | 0.00 | 0.00 | 99 | 985.7 |
| 20260507052148 | 54 | 254 | 0.0 | 0.0 | 0.00 | 0.00 | 0.00 | 99 | 985.7 |
| 20260507051524 | 54 | 263 | 0.0 | 0.0 | 0.00 | 0.00 | 0.00 | 99 | 985.7 |
| 20260507050911 | 54 | 239 | 0.0 | 1.0 | 0.00 | 0.00 | 0.00 | 99 | 985.7 |
| 20260507050342 | 54 | 238 | 0.0 | 1.0 | 0.00 | 0.00 | 0.00 | 99 | 986.1 |
| 20260507045750 | 54 | 262 | 0.0 | 0.0 | 0.00 | 0.00 | 0.00 | 99 | 985.7 |
| 20260507045142 | 54 | 264 | 0.0 | 0.0 | 0.00 | 0.00 | 0.00 | 99 | 985.7 |
| 20260507044539 | 54 | 263 | 0.0 | 0.0 | 0.00 | 0.00 | 0.00 | 99 | 986.1 |
| 20260507043954 | 54 | 263 | 0.0 | 0.0 | 0.00 | 0.00 | 0.00 | 99 | 985.7 |
| 20260507041541 | 54 | 266 | 0.0 | 0.0 | 0.00 | 0.00 | 0.00 | 99 | 985.7 |
| 20260507040932 | 54 | 266 | 0.0 | 0.0 | 0.00 | 0.00 | 0.00 | 99 | 986.1 |
| 20260507040332 | 54 | 266 | 0.0 | 0.0 | 0.00 | 0.00 | 0.00 | 99 | 985.7 |
| 20260507035713 | 54 | 266 | 0.0 | 0.0 | 0.00 | 0.00 | 0.92 | 99 | 986.1 |
| 20260507035145 | 54 | 266 | 0.0 | 0.0 | 0.00 | 0.00 | 0.92 | 99 | 985.7 |
| 20260507034518 | 54 | 265 | 0.0 | 0.0 | 0.00 | 0.00 | 0.92 | 99 | 985.7 |
| 20260507033911 | 54 | 266 | 0.0 | 0.0 | 0.00 | 0.00 | 0.92 | 99 | 985.7 |
| 20260507033343 | 54 | 282 | 0.0 | 0.0 | 0.00 | 0.00 | 0.92 | 99 | 986.1 |
| 20260507032121 | 54 | 243 | 0.0 | 1.0 | 0.00 | 0.00 | 0.92 | 99 | 985.4 |
| 20260507030950 | 54 | 278 | 0.0 | 1.0 | 0.00 | 0.00 | 0.92 | 99 | 985.4 |
| 20260507030351 | 54 | 222 | 0.0 | 2.0 | 0.00 | 0.00 | 0.92 | 99 | 985.7 |
| 20260507025726 | 54 | 294 | 2.0 | 3.0 | 0.00 | 0.00 | 0.92 | 99 | 986.1 |
| 20260507024540 | 55 | 300 | 1.0 | 1.0 | 0.00 | 0.00 | 0.92 | 99 | 985.1 |
| 20260507023911 | 55 | 331 | 0.0 | 0.0 | 0.00 | 0.00 | 0.92 | 99 | 985.4 |
| 20260507023354 | 55 | 331 | 0.0 | 1.0 | 0.00 | 0.00 | 0.92 | 99 | 985.4 |
| 20260507022710 | 55 | 107 | 0.0 | 1.0 | 0.00 | 0.00 | 0.91 | 99 | 985.7 |
| 20260507022117 | 55 | 245 | 0.0 | 2.0 | 0.00 | 0.00 | 0.91 | 99 | 986.7 |
| 20260507021541 | 55 | 314 | 0.0 | 0.0 | 0.00 | 0.00 | 0.91 | 99 | 986.7 |
| 20260507020939 | 55 | 298 | 0.0 | 0.0 | 0.00 | 0.00 | 0.91 | 99 | 986.7 |
| 20260507020318 | 55 | 39 | 0.0 | 0.0 | 0.00 | 0.00 | 0.91 | 99 | 986.4 |
| 20260507015728 | 55 | 276 | 0.0 | 0.0 | 0.00 | 0.00 | 0.91 | 99 | 986.1 |
| 20260507015145 | 55 | 259 | 1.0 | 1.0 | 0.00 | 0.00 | 0.91 | 99 | 986.4 |
| 20260507014513 | 55 | 294 | 0.0 | 0.0 | 0.00 | 0.00 | 0.91 | 99 | 986.1 |
| 20260507013930 | 55 | 310 | 0.0 | 1.0 | 0.00 | 0.00 | 0.91 | 99 | 985.7 |
| 20260507013354 | 55 | 263 | 0.0 | 1.0 | 0.00 | 0.00 | 0.91 | 99 | 985.1 |
| 20260507012144 | 55 | 298 | 0.0 | 2.0 | 0.00 | 0.00 | 0.91 | 99 | 985.1 |
| 20260507011532 | 55 | 282 | 1.0 | 1.0 | 0.00 | 0.00 | 0.91 | 99 | 985.1 |
| 20260507010953 | 55 | 264 | 2.0 | 2.0 | 0.00 | 0.00 | 0.91 | 99 | 985.1 |
| 20260507010329 | 55 | 263 | 1.0 | 3.0 | 0.00 | 0.00 | 0.91 | 99 | 984.7 |
| 20260507005135 | 55 | 296 | 0.0 | 1.0 | 0.00 | 0.00 | 0.91 | 99 | 984.4 |
| 20260507004543 | 55 | 244 | 0.0 | 0.0 | 0.00 | 0.00 | 0.91 | 99 | 984.0 |
| 20260506212127 | 57 | 260 | 1.0 | 3.0 | 0.00 | 0.00 | 0.80 | 99 | 984.0 |
| 20260506210930 | 57 | 292 | 1.0 | 2.0 | 0.00 | 0.00 | 0.80 | 99 | 984.4 |
| 20260506210347 | 57 | 256 | 1.0 | 2.0 | 0.00 | 0.00 | 0.80 | 99 | 984.4 |
| 20260506204531 | 58 | 292 | 0.0 | 2.0 | 0.00 | 0.00 | 0.80 | 99 | 984.0 |
| 20260506203311 | 58 | 293 | 2.0 | 3.0 | 0.00 | 0.00 | 0.79 | 99 | 984.0 |
| 20260506202713 | 58 | 222 | 2.0 | 4.0 | 0.00 | 0.00 | 0.78 | 99 | 984.0 |
| 20260506201533 | 58 | 258 | 0.0 | 6.0 | 0.00 | 0.00 | 0.77 | 99 | 984.0 |
| 20260506200314 | 58 | 249 | 2.0 | 2.0 | 0.00 | 0.00 | 0.77 | 99 | 984.0 |
| 20260506195752 | 58 | 280 | 1.0 | 3.0 | 0.00 | 0.00 | 0.77 | 99 | 983.4 |
| 20260506194536 | 59 | 277 | 1.0 | 3.0 | 0.00 | 0.00 | 0.77 | 99 | 983.4 |
| 20260506193953 | 59 | 303 | 4.0 | 6.0 | 0.00 | 0.00 | 0.77 | 99 | 983.4 |
| 20260506193353 | 59 | 234 | 2.0 | 8.0 | 0.00 | 0.00 | 0.77 | 99 | 983.4 |
| 20260506192743 | 59 | 266 | 1.0 | 4.0 | 0.00 | 0.00 | 0.77 | 99 | 983.4 |
| 20260506192132 | 59 | 313 | 2.0 | 4.0 | 0.00 | 0.00 | 0.77 | 99 | 983.4 |
| 20260506191543 | 59 | 289 | 6.0 | 8.0 | 0.00 | 0.00 | 0.77 | 99 | 983.0 |
| 20260506190913 | 60 | 188 | 2.0 | 7.0 | 0.00 | 0.00 | 0.77 | 99 | 983.0 |
| 20260506190341 | 60 | 320 | 1.0 | 2.0 | 0.00 | 0.00 | 0.77 | 99 | 983.4 |
| 20260506185719 | 60 | 290 | 1.0 | 2.0 | 0.00 | 0.00 | 0.77 | 99 | 983.0 |
| 20260506184536 | 59 | 321 | 0.0 | 4.0 | 0.00 | 0.00 | 0.77 | 99 | 983.0 |
| 20260506183920 | 59 | 267 | 1.0 | 6.0 | 0.00 | 0.00 | 0.76 | 99 | 983.0 |
| 20260506183330 | 60 | 339 | 2.0 | 2.0 | 0.00 | 0.00 | 0.76 | 99 | 982.7 |
| 20260506182741 | 60 | 240 | 3.0 | 4.0 | 0.00 | 0.00 | 0.75 | 99 | 983.4 |
| 20260506181541 | 60 | 296 | 4.0 | 10.0 | 0.00 | 0.00 | 0.75 | 99 | 982.3 |
| 20260506180936 | 60 | 274 | 4.0 | 11.0 | 0.00 | 0.00 | 0.74 | 99 | 982.7 |
| 20260506180354 | 62 | 262 | 4.0 | 9.0 | 0.00 | 0.00 | 0.71 | 99 | 982.3 |
| 20260506175748 | 64 | 263 | 6.0 | 10.0 | 0.00 | 0.00 | 0.67 | 99 | 982.3 |
| 20260506175127 | 64 | 261 | 0.0 | 0.0 | 0.00 | 0.00 | 0.62 | 99 | |
| 20260506174531 | 64 | 279 | 0.0 | 1.0 | 0.00 | 0.00 | 0.62 | 99 | |
| 20260506173943 | 64 | 241 | 1.0 | 1.0 | 0.00 | 0.00 | 0.61 | 99 | |
| 20260506173318 | 64 | 257 | 2.0 | 3.0 | 0.00 | 0.00 | 0.60 | 99 | |
| 20260506172712 | 65 | 249 | 1.0 | 2.0 | 0.00 | 0.00 | 0.60 | 99 | 982.3 |
| 20260506172141 | 65 | 250 | 3.0 | 3.0 | 0.00 | 0.00 | 0.60 | 99 | 982.3 |
| 20260506170953 | 65 | 274 | 2.0 | 2.0 | 0.00 | 0.00 | 0.60 | 99 | 982.3 |
| 20260506170310 | 65 | 267 | 0.0 | 1.0 | 0.00 | 0.00 | 0.60 | 99 | |
| 20260506163946 | 64 | 315 | 0.0 | 0.0 | 0.00 | 0.00 | 0.60 | 99 | |
| 20260506163334 | 64 | 353 | 0.0 | 0.0 | 0.00 | 0.00 | 0.59 | 99 | 982.3 |
| 20260506162749 | 64 | 353 | 0.0 | 0.0 | 0.00 | 0.00 | 0.59 | 99 | |
| 20260506162115 | 64 | 353 | 0.0 | 0.0 | 0.00 | 0.00 | 0.59 | 99 | |
| 20260506161546 | 64 | 24 | 0.0 | 1.0 | 0.00 | 0.00 | 0.59 | 99 | |
| 20260506160934 | 64 | 232 | 1.0 | 1.0 | 0.00 | 0.00 | 0.57 | 99 | |
| 20260506160351 | 64 | 127 | 0.0 | 0.0 | 0.00 | 0.00 | 0.57 | 99 | |
| 20260506155712 | 64 | 230 | 0.0 | 0.0 | 0.00 | 0.00 | 0.57 | 99 | |
| 20260506155128 | 64 | 79 | 1.0 | 2.0 | 0.00 | 0.00 | 0.57 | 99 | |
| 20260506154542 | 64 | 190 | 2.0 | 3.0 | 0.00 | 0.00 | 0.57 | 99 | |
| 20260506153930 | 64 | 86 | 0.0 | 1.0 | 0.00 | 0.00 | 0.57 | 99 | |
| 20260506153334 | 64 | 139 | 0.0 | 1.0 | 0.00 | 0.00 | 0.57 | 99 | |
| 20260506152733 | 64 | 73 | 1.0 | 2.0 | 0.00 | 0.00 | 0.57 | 99 | |
| 20260506151533 | 64 | 90 | 1.0 | 1.0 | 0.00 | 0.00 | 0.57 | 99 | |
| 20260506150933 | 64 | 190 | 1.0 | 1.0 | 0.00 | 0.00 | 0.57 | 99 | |
| 20260506150311 | 64 | 48 | 0.0 | 0.0 | 0.00 | 0.00 | 0.57 | 99 | |
| 20260506145750 | 64 | 66 | 1.0 | 1.0 | 0.00 | 0.00 | 0.57 | 99 | |
| 20260506145133 | 64 | 57 | 1.0 | 1.0 | 0.00 | 0.00 | 0.57 | 99 | |
| 20260506144538 | 64 | 143 | 0.0 | 0.0 | 0.00 | 0.00 | 0.57 | 99 | |
| 20260506143929 | 64 | 222 | 0.0 | 1.0 | 0.00 | 0.00 | 0.57 | 99 | |
| 20260506143317 | 64 | 356 | 1.0 | 1.0 | 0.00 | 0.00 | 0.57 | 99 | |
| 20260506142716 | 64 | 353 | 0.0 | 2.0 | 0.00 | 0.00 | 0.57 | 99 | |
| 20260506142117 | 64 | 63 | 1.0 | 2.0 | 0.00 | 0.00 | 0.57 | 99 | |
| 20260506141523 | 64 | 11 | 2.0 | 2.0 | 0.00 | 0.00 | 0.57 | 99 | |
| 20260506140935 | 64 | 90 | 1.0 | 1.0 | 0.00 | 0.00 | 0.57 | 99 | |
| 20260506140343 | 64 | 20 | 2.0 | 2.0 | 0.00 | 0.00 | 0.57 | 99 | |
| 20260506135734 | 64 | 326 | 0.0 | 1.0 | 0.00 | 0.00 | 0.57 | 99 | |
| 20260506135139 | 63 | 68 | 1.0 | 2.0 | 0.00 | 0.00 | 0.57 | 99 | |
| 20260506134512 | 63 | 91 | 2.0 | 2.0 | 0.00 | 0.00 | 0.57 | 99 | |
| 20260506133920 | 62 | 112 | 2.0 | 3.0 | 0.00 | 0.00 | 0.57 | 99 | |
| 20260506133350 | 62 | 164 | 0.0 | 2.0 | 0.00 | 0.00 | 0.57 | 99 | |
| 20260506132744 | 62 | 6 | 5.0 | 7.0 | 0.00 | 0.00 | 0.57 | 99 | |
| 20260506132120 | 61 | 77 | 1.0 | 2.0 | 0.00 | 0.00 | 0.57 | 99 | |
| 20260506131514 | 61 | 113 | 2.0 | 3.0 | 0.00 | 0.00 | 0.57 | 99 | |
| 20260506130920 | 60 | 105 | 2.0 | 3.0 | 0.00 | 0.00 | 0.57 | 99 | |
| 20260506125727 | 60 | 88 | 0.0 | 2.0 | 0.00 | 0.00 | 0.57 | 99 | |
| 20260506125146 | 60 | 115 | 1.0 | 2.0 | 0.00 | 0.00 | 0.57 | 99 | |
| 20260506124511 | 60 | 60 | 2.0 | 2.0 | 0.00 | 0.00 | 0.57 | 99 | |
| 20260506123932 | 60 | 85 | 1.0 | 2.0 | 0.00 | 0.00 | 0.57 | 99 | |
| 20260506123320 | 60 | 94 | 1.0 | 2.0 | 0.00 | 0.00 | 0.57 | 99 | |
| 20260506122715 | 60 | 106 | 1.0 | 2.0 | 0.00 | 0.00 | 0.57 | 99 | |
| 20260506122149 | 60 | 95 | 1.0 | 1.0 | 0.00 | 0.00 | 0.57 | 99 | |
| 20260506121518 | 60 | 137 | 1.0 | 3.0 | 0.00 | 0.00 | 0.57 | 99 |